Showing default

IRNSS 1D, 40547

Orbit data source: Space-Track

IRNSS 1D, 40547 is a payload satellite owned by ISRO (IN) in GEO that was launched on Sat, 28 Mar 2015 UTC via a PSLV-XL launch vehicle from the Sirharikota (SRI). Payload-class satellites include a variety of spacecraft equipped with specific instruments for various scientific and technological missions. These include communications satellites like Starlink; space stations such as the ISS; scientific satellites like the Hubble; Earth observation satellites from companies like Planet Labs, Umbra, and HawkEye 360; GPS; miniature CubeSats for education and research; and military/defense satellites.

Not visible in the next 10 days
Identifier
40547, 2015-018A
Orbit
GEO
Country
Flag of ININ / IND
Related business
Manufacturer
ISRO SAC/Banga
Mission
Non-operational Civil Navigation
Bus & Motor
I1K, ISRO LAM
Mass
1,425 kg wet, 603 kg dry
Launch date (UTC)
2015-03-28 (11 years ago)
Launch vehicle
PSLV-XL
Launch site
Sirharikota (SRI)
Object type
Payload
Rocket body
Debris
Shape & HBR
Box + 2 Pan, 5.0 m
Radar Cross Section
6.961 m², Large (>1 m²)

Expand to show TLE details & history
Last TLE update: 7 hours ago

TLE from 7 hours ago
0 IRNSS 1D
1 40547U 15018A   26095.53630500 -.00000072  00000-0  00000-0 0  9999
2 40547  19.7212 240.3155 0007778 356.2567 176.7094  0.97958792 40191
Epoch: 2026-04-05T12:52Z
TLE epoch observation values (Epoch: 2026-04-05T12:52:16.751Z)
Latitude
2.33116°
Longitude
26.81405°
Altitude
36,480.36 km
Speed
3.049 km/s
True Right ascension
03h 34m 53s
True Declination
2° 19' 44"
Sunlit
Object was in daylight at epoch
Visualization orbit readout
Latitude
Unknown
Longitude
Unknown
Altitude
Unknown
Speed
Unknown
Apparent Right ascension
Unknown
Apparent Declination
Unknown
Sunlit
N/A
Visualization observer readout
Local Sidereal Time
01:20:02
Azimuth
Unknown
Elevation
Unknown
Doppler factor
Unknown
Orbital elements
Apogee altitude
36,481.926 km
Perigee altitude
36,415.305 km
Semi-major axis
42,826.752 km
Eccentricity
0.00078
Inclination
19.7212°
RAAN
240.3155°
Arg. of periapsis
356.2567°
True anomaly
176.71451°
Mean anomaly
176.7094°
Eccentric anomaly
176.71196°
Mean motion
0.24489 °/min
Orbital period
1,470.05 mins
BSTAR
0
Loading maneuver chart data...
Computing Atmospheric mass density...
Loading historical data...
Loading historical data...
Loading historical data...
Loading historical data...
Loading historical data...
Loading historical data...
Loading historical data...
Other satellites on launch #18 in the year 2015 (2015-03-28 UTC)

Documentation

Showing up to 5 results
|